[[{"header":{"parameterUnit":"m.s-1","parameterCategory":1,"la1":30.2991,"la2":30.254,"lo1":-89.0895,"lo2":-89.0444,"dy":0.0017,"dx":0.0017,"nx":28,"ny":28,"refTime":"2025-03-18T03:00:00:Z","depth":0,"parameterNumber":2,"parameterNumberName":"U-component_of_WINDS"},"data":[0,0,0,0,0,0,0,0,0,0,0,0,0,0,0,0,0,0,0,0,0,0,0,0,0,0,0,0,0,0,0,0,0,0,0,0,0,0,0,0,0,0,0,0,0,0,0,0,0,0,0,0,0,0,0,0,0,0,3.769,3.7691,0,3.7844,3.7845,3.7847,3.779,3.7787,3.7783,3.778,3.7938,3.7945,3.7953,0,0,0,0,0,0,0,0,0,0,0,0,0,3.7345,3.7352,3.7689,3.7691,3.7693,3.7843,3.7846,3.7848,3.7791,3.7787,3.7782,3.7778,3.7936,3.7945,3.7953,0,0,0,0,0,0,0,0,0,0,0,0,0,3.7497,3.7354,3.7689,3.7683,3.7684,3.7843,3.7846,3.7848,3.7792,3.7787,3.7781,3.7776,3.7933,3.7944,3.7955,3.8129,0,0,3.7989,3.7994,0,0,0,0,0,0,0,0,3.7488,3.7509,3.7682,3.7684,3.7685,3.7792,3.7782,3.7942,3.7793,3.7751,3.778,3.7774,3.7894,3.7908,3.7948,3.8136,3.8143,3.799,3.7997,3.8002,3.8005,0,0,0,0,0,0,0,3.7478,3.7502,3.775,3.7685,3.7687,3.7672,3.7688,3.7812,3.785,3.7754,3.775,3.777,3.7894,3.7938,3.7952,3.8145,3.799,3.8,3.8006,3.8011,3.8482,3.8488,0,0,0,0,0,0,3.7467,3.7494,3.7745,3.7755,3.7572,3.7683,3.77,3.7763,3.7848,3.7856,3.7774,3.7766,3.7921,3.7939,3.7957,3.8165,3.8001,3.8012,3.8018,3.8476,3.8484,3.849,0,0,0,0,0,0,3.7459,3.749,3.7739,3.7624,3.7654,3.7694,3.7765,3.7769,3.7813,3.7863,3.787,3.7812,3.7918,3.7941,3.8086,3.817,3.8017,3.8027,3.847,3.8479,3.8487,3.8584,0,0,0,0,0,0,3.745,3.7487,3.7554,3.7626,3.7661,3.7866,3.7771,3.7776,3.7832,3.7824,3.7901,3.7908,3.7915,3.807,3.8097,3.8183,3.8036,3.8462,3.8474,3.8484,3.8574,3.8595,3.8614,0,0,0,0,0,3.7438,3.7576,3.7558,3.7588,3.7745,3.7871,3.7891,3.7897,3.7839,3.7907,3.7939,3.7906,3.8157,3.8085,3.8116,3.8206,3.8457,3.847,3.8483,3.8565,3.8591,3.8613,0,0,0,0,0,0,3.7513,3.7585,3.7566,3.7731,3.7796,3.7861,3.7946,3.7925,3.8007,3.7995,3.7998,3.8016,3.8165,3.82,3.8119,3.8378,3.8298,3.8318,3.835,3.8375,3.8395,3.8383,3.8045,0,0,0,0,0,3.7549,3.7646,3.7703,3.7843,3.7877,3.7906,3.7961,3.796,3.8027,3.8054,3.8096,3.8163,3.8256,3.8318,3.8407,3.8579,3.8594,3.8656,3.8676,3.8692,3.8709,3.8801,3.8829,3.8533,3.8533,3.8532,0,0,3.7624,3.7675,3.7736,3.786,3.7909,3.8009,3.7929,3.8039,3.8112,3.807,3.8209,3.8243,3.8317,3.8476,3.8548,3.851,3.8794,3.8708,3.8721,3.8729,3.8817,3.8845,3.887,3.8542,3.854,3.8539,0,0,3.7811,3.786,3.7982,3.8033,3.811,3.8128,3.8158,3.8227,3.8248,3.8388,3.8358,3.8446,3.8607,3.8661,3.8709,3.8916,3.8889,3.8945,3.9049,3.914,3.9163,3.9184,3.9257,3.9283,3.8962,3.8962,3.8963,0,3.7895,3.8044,3.8047,3.8159,3.8214,3.818,3.8303,3.8353,3.8455,3.8493,3.8448,3.865,3.8697,3.8868,3.8918,3.8959,3.8992,3.8936,3.9159,3.918,3.9199,3.9269,3.9297,3.8969,3.8968,3.8967,3.8967,0,3.8143,3.8247,3.8336,3.8434,3.85,3.8616,3.8637,3.8702,3.8695,3.8718,3.8861,3.8916,3.9016,3.9056,3.9051,3.9226,3.9199,3.9158,3.9077,3.9234,3.9299,3.9326,3.8978,3.8975,3.8974,3.8972,0,0,3.8382,3.8481,3.8513,3.8557,3.8639,3.8719,3.8834,3.8931,3.8986,3.9058,3.9153,3.9291,3.9252,3.9307,3.9307,3.9386,3.9546,3.9334,3.9336,3.937,3.9741,3.9772,3.9802,3.9528,3.9533,3.9537,3.9734,0,3.8575,3.8777,3.8783,3.8967,3.9063,3.9032,3.9132,3.9193,3.9218,3.9302,3.9329,3.9426,3.9368,3.9401,3.9478,3.951,3.962,3.9496,3.9617,3.9621,3.9598,3.9837,3.987,4.0053,3.976,3.9765,3.9768,0,3.8828,3.8906,3.91,3.9167,3.9208,3.9297,3.9386,3.9468,3.9535,3.9548,3.9609,3.9597,3.9714,3.9631,3.9791,3.9707,3.9756,3.978,3.9787,3.9797,3.9703,3.9853,4.0112,4.0139,3.9808,3.9805,3.9802,0,3.8981,3.9136,3.9272,3.931,3.9392,3.9456,3.9493,3.9556,3.9613,3.9691,3.9728,3.9819,3.9868,3.9938,3.9951,3.9889,4.0112,4.0029,4.0124,4.0124,4.0172,4.0169,4.0441,4.0206,4.0206,4.0205,4.0205,0,3.9196,3.9316,3.9342,3.9425,3.9558,3.9564,3.9695,3.9727,3.9783,3.9872,3.9851,3.9935,3.9947,4.0033,4.0044,4.0175,4.0198,4.021,4.0212,4.0212,4.021,4.0244,4.0231,4.0212,4.0211,4.0209,4.0208,0,3.939,3.9413,3.9558,3.9624,3.9643,3.9738,3.9793,3.9873,3.9895,4.0008,4.0034,4.007,4.017,4.019,4.031,4.0317,4.0472,4.0461,4.0449,4.0448,4.0541,4.0532,4.0845,4.0885,4.0624,4.0627,4.0629,0,3.9525,3.9616,3.9691,3.9749,3.9789,3.9883,3.9941,3.995,4.0012,4.0096,4.0165,4.0264,4.0343,4.0505,4.0541,4.0632,4.0622,4.0726,4.0636,4.0633,4.0623,4.0617,4.0625,4.0743,4.0746,4.0748,4.075,0,3.9762,3.9769,3.9854,3.9943,4.0013,4.0084,4.0151,4.02,4.0217,4.0288,4.039,4.0452,4.0573,4.0671,4.0762,4.0799,4.0778,4.0778,4.0804,4.0805,4.0794,4.08,4.0495,4.077,4.0768,4.0767,4.0766,4.0765,3.993,4.0009,4.0074,4.017,4.0221,4.0284,4.0361,4.0393,4.0479,4.0578,4.0579,4.0691,4.0755,4.0875,4.0918,4.1006,4.0973,4.1012,4.1021,4.1031,4.1039,4.0781,4.1022,4.1022,4.1021,4.1021,4.102,0,4.0165,4.0205,4.0293,4.0387,4.0462,4.0435,4.0508,4.0572,4.0671,4.0733,4.0811,4.0929,4.1023,4.1067,4.116,4.1221,4.1214,4.1245,4.124,4.1249,4.1063,4.103,4.125,4.125,4.125,4.125,4.125,4.125,4.0296,4.0428,4.0442,4.0599,4.0639,4.0748,4.0792,4.0849,4.0899,4.1031,4.1109,4.1137,4.1192,4.1288,4.1374,4.1384,4.1419,4.1455,4.146,4.1286,4.1262,4.124,4.1209,4.1463,4.1463,4.1639,4.164,4.1641]},{"header":{"parameterUnit":"m.s-1","parameterCategory":1,"la1":30.2991,"la2":30.254,"lo1":-89.0895,"lo2":-89.0444,"dy":0.0017,"dx":0.0017,"nx":28,"ny":28,"refTime":"2025-03-18T03:00:00:Z","depth":0,"parameterNumber":3,"parameterNumberName":"V-component_of_WINDS"},"data":[0,0,0,0,0,0,0,0,0,0,0,0,0,0,0,0,0,0,0,0,0,0,0,0,0,0,0,0,0,0,0,0,0,0,0,0,0,0,0,0,0,0,0,0,0,0,0,0,0,0,0,0,0,0,0,0,0,0,0.3978,0.3979,0,0.4084,0.4085,0.4086,0.4119,0.4119,0.4118,0.4118,0.4227,0.423,0.4234,0,0,0,0,0,0,0,0,0,0,0,0,0,0.3804,0.3807,0.3978,0.3979,0.3981,0.4084,0.4085,0.4087,0.4119,0.4119,0.4118,0.4118,0.4226,0.423,0.4234,0,0,0,0,0,0,0,0,0,0,0,0,0,0.3892,0.3808,0.3978,0.4009,0.4013,0.4084,0.4085,0.4087,0.412,0.4119,0.4118,0.4117,0.4225,0.423,0.4235,0.4281,0,0,0.425,0.4252,0,0,0,0,0,0,0,0,0.3887,0.3898,0.4004,0.4007,0.4012,0.4088,0.4064,0.4152,0.412,0.4079,0.4118,0.4117,0.4181,0.419,0.4211,0.4286,0.4291,0.425,0.4254,0.4256,0.4257,0,0,0,0,0,0,0,0.3881,0.3894,0.402,0.4005,0.401,0.4018,0.403,0.4081,0.4133,0.4083,0.4085,0.4097,0.4183,0.4206,0.4214,0.4293,0.425,0.4255,0.4258,0.426,0.4409,0.441,0,0,0,0,0,0,0.3869,0.3888,0.4017,0.4023,0.3946,0.4022,0.4035,0.4064,0.4133,0.4143,0.4098,0.4099,0.4198,0.4208,0.4218,0.4277,0.4256,0.426,0.4263,0.4408,0.441,0.4411,0,0,0,0,0,0,0.3865,0.388,0.4012,0.3957,0.3974,0.4026,0.4058,0.4067,0.409,0.4144,0.4154,0.4112,0.4198,0.4211,0.4265,0.4281,0.4263,0.4267,0.4407,0.4409,0.441,0.4394,0,0,0,0,0,0,0.386,0.3879,0.3897,0.3957,0.3977,0.4058,0.4059,0.4069,0.4098,0.41,0.416,0.4169,0.4198,0.4257,0.427,0.4288,0.4271,0.4406,0.4408,0.441,0.4394,0.4395,0.4396,0,0,0,0,0,0.3854,0.3889,0.3898,0.3913,0.4001,0.4058,0.407,0.4103,0.4099,0.4118,0.4153,0.4167,0.4277,0.4262,0.4277,0.4297,0.4405,0.4407,0.4409,0.4393,0.4395,0.4396,0,0,0,0,0,0,0.3831,0.3898,0.3908,0.3964,0.4005,0.4064,0.4089,0.4104,0.4147,0.4147,0.4186,0.4199,0.425,0.4278,0.4261,0.4344,0.4342,0.4347,0.4324,0.4326,0.4327,0.432,0.4276,0,0,0,0,0,0.3832,0.3873,0.3929,0.3973,0.3993,0.4037,0.4063,0.4085,0.4129,0.4147,0.4186,0.4228,0.4272,0.4301,0.4344,0.4397,0.4411,0.4418,0.4419,0.442,0.4424,0.4453,0.4457,0.4417,0.4417,0.4417,0,0,0.3836,0.3877,0.3901,0.3969,0.4004,0.4045,0.4052,0.4095,0.4126,0.4154,0.4207,0.4236,0.4286,0.434,0.4365,0.4365,0.4437,0.4422,0.4423,0.4427,0.4456,0.4459,0.4462,0.4419,0.4418,0.4418,0,0,0.3863,0.3899,0.3938,0.3972,0.4024,0.4053,0.4062,0.4119,0.4139,0.4193,0.4214,0.4251,0.4326,0.436,0.4388,0.4425,0.444,0.4438,0.4445,0.4473,0.4476,0.4479,0.4492,0.4496,0.4442,0.4442,0.4442,0,0.3861,0.3924,0.3957,0.3999,0.4028,0.4054,0.4094,0.4126,0.4189,0.4208,0.4207,0.4301,0.4337,0.4398,0.4407,0.4428,0.444,0.4432,0.4473,0.4476,0.448,0.4492,0.4497,0.4442,0.4442,0.4442,0.4442,0,0.3919,0.3962,0.3988,0.4047,0.4079,0.412,0.4159,0.4187,0.4205,0.4234,0.4287,0.433,0.4382,0.4398,0.4417,0.4462,0.446,0.4465,0.4464,0.4482,0.4495,0.45,0.4441,0.4441,0.4441,0.4441,0,0,0.3937,0.4012,0.4021,0.4048,0.4106,0.414,0.4181,0.4232,0.4255,0.4297,0.4333,0.4394,0.4399,0.443,0.4452,0.4477,0.4503,0.4479,0.4481,0.4482,0.4554,0.455,0.4555,0.4512,0.4513,0.4514,0.455,0,0.3972,0.4047,0.4077,0.4138,0.4177,0.4201,0.4237,0.4276,0.4303,0.4341,0.4371,0.4414,0.4417,0.4436,0.4461,0.4494,0.4518,0.4492,0.4545,0.4547,0.4533,0.4562,0.4558,0.459,0.4555,0.4556,0.4557,0,0.4023,0.4064,0.4129,0.418,0.4198,0.423,0.4278,0.4313,0.4358,0.4376,0.4409,0.4429,0.4473,0.4467,0.4527,0.4509,0.4532,0.4552,0.4554,0.4561,0.4553,0.4569,0.4601,0.4605,0.4565,0.4564,0.4564,0,0.4029,0.4101,0.4149,0.4171,0.4232,0.4254,0.4281,0.4324,0.4352,0.4393,0.4411,0.4457,0.4483,0.4518,0.455,0.4542,0.4607,0.4604,0.4623,0.4622,0.4636,0.4635,0.4671,0.465,0.465,0.465,0.465,0,0.4065,0.4104,0.4152,0.4182,0.4225,0.4258,0.43,0.4329,0.4367,0.4402,0.4425,0.4457,0.4497,0.4534,0.4559,0.4604,0.4616,0.4631,0.4638,0.463,0.4628,0.4646,0.4645,0.4651,0.4651,0.4651,0.465,0,0.408,0.4114,0.4167,0.422,0.4234,0.4264,0.4309,0.4338,0.4366,0.441,0.4422,0.4465,0.451,0.4545,0.4603,0.462,0.4668,0.4675,0.4653,0.4656,0.4673,0.4671,0.4723,0.4731,0.4704,0.4704,0.4705,0,0.4101,0.4131,0.4186,0.4211,0.4237,0.4277,0.4305,0.4338,0.4366,0.4418,0.4441,0.4487,0.4525,0.4595,0.4632,0.4676,0.4684,0.47,0.4691,0.4682,0.4685,0.4682,0.4685,0.4701,0.4701,0.4701,0.4701,0,0.4134,0.4149,0.4188,0.4233,0.4266,0.4303,0.434,0.4359,0.4399,0.443,0.4475,0.4505,0.4564,0.4609,0.4657,0.4684,0.4699,0.4703,0.471,0.4702,0.4688,0.4696,0.4656,0.4702,0.4702,0.4702,0.4702,0.4702,0.4153,0.418,0.4223,0.4266,0.4297,0.4331,0.4361,0.4391,0.443,0.448,0.4497,0.4543,0.4585,0.4651,0.4678,0.4715,0.4716,0.4725,0.4728,0.473,0.4729,0.4682,0.4724,0.4724,0.4724,0.4724,0.4724,0,0.4187,0.4215,0.4254,0.4305,0.4339,0.4349,0.4391,0.4418,0.4458,0.4496,0.4533,0.4585,0.4628,0.4667,0.4712,0.4734,0.4742,0.4745,0.4744,0.4749,0.4726,0.4715,0.4737,0.4737,0.4737,0.4737,0.4737,0.4737,0.4209,0.4255,0.4275,0.4337,0.4365,0.441,0.4433,0.4464,0.4494,0.4551,0.4586,0.4611,0.4649,0.4697,0.4737,0.4747,0.4763,0.4764,0.4776,0.4753,0.4751,0.4749,0.474,0.4767,0.4767,0.4796,0.4797,0.4797]}]]